Regional Weather Roundup
Issued by NWS

Home | Current Version | Previous Version | Graphics & Text | Print | Product List | Glossary On
Versions: 1 2 3 4 5 6 7 8 9 10 11 12 13 14 15 16 17 18 19 20 21 22 23 24 25 26 27
000
ASUS45 KSLC 180810
RWRUT

UTAH REGIONAL WEATHER ROUNDUP
NATIONAL WEATHER SERVICE SALT LAKE CITY UT
200 AM MDT WED OCT 18 2017

UTZ001>011-023>025-180900-

NORTHERN UTAH

CITY           SKY/WX    TMP DP  RH WIND       PRES   REMARKS
BRIGHAM CITY   CLEAR     35  29  76 SE5       30.17S WCI  31
HILL AFB       CLEAR     48  23  36 E9        30.17R
LOGAN          CLEAR     41  25  53 CALM      30.17S
OGDEN          CLEAR     45  24  43 CALM      30.17R
SALT LAKE CITY PTCLDY    46  37  71 CALM      30.15F
TOOELE VALLEY  PTCLDY    41  28  60 CALM      30.17R
WENDOVER       PTCLDY    40  24  53 E6        30.17S
WEST JORDAN    CLEAR     45  28  51 SW6       30.16F

$$

UTZ011>015-024>027-180900-

CENTRAL/NORTHEAST UTAH

CITY           SKY/WX    TMP DP  RH WIND       PRES   REMARKS
PROVO AIRPORT  MOCLDY    43  30  60 CALM      30.17R
MOAB/CANYONLAN PTCLDY    42  15  33 CALM      30.16S
DELTA          CLOUDY    45  16  31 NW5       30.15S
PRICE          MOCLDY    44   9  23 CALM      30.21S
ROOSEVELT      CLOUDY    34  23  64 W6        30.20F WCI  29
VERNAL         CLOUDY    37  21  52 SW3       30.19S

$$

UTZ013>016-019>022-027-180900-

SOUTHERN UTAH

CITY           SKY/WX    TMP DP  RH WIND       PRES   REMARKS
BRYCE CANYON   PTCLDY    32  17  54 W7        30.32F WCI  26
CEDAR CITY     PTCLDY    45  22  40 CALM      30.19S
MILFORD        MOCLDY    46  19  34 S9        30.14F
ST GEORGE      PTSUNNY   57  20  23 S3        30.07S
HANKSVILLE     MOCLDY    41  14  33 NW3       30.20S
BLANDING         N/A     46  11  24 N7        30.30S

$$

REGIONAL REPORTS     COLORADO/ARIZONA

CITY           SKY/WX    TMP DP  RH WIND       PRES   REMARKS
CRAIG, CO      CLOUDY    26  19  74 CALM      30.23F
GRAND JUNCTION CLOUDY    43  14  31 E10       30.20S
RIFLE, CO      CLEAR     36  18  48 CALM      30.26R
MONTROSE, CO   CLOUDY    38  14  37 S7        30.27S WCI  33
CORTEZ, CO     CLOUDY    33  14  45 E3        30.26F
COLORADO CITY    N/A     43  23  45 SE6       30.20S
PAGE, AZ       MOCLDY    56  18  22 CALM      30.14F
GRAND CANYON   CLOUDY    35  17  47 CALM      30.29S HAZE
KINGMAN, AZ    CLEAR     59  29  31 S3        30.07F
FLAGSTAFF, AZ  PTCLDY    38  20  48 CALM      30.30F

$$

REGIONAL REPORTS    NEVADA/IDAHO/WYOMING

CITY           SKY/WX    TMP DP  RH WIND       PRES   REMARKS
LAS VEGAS, NV  PTCLDY    66  21  18 S6        29.99S
ELY, NY        MOCLDY    38   1  21 S13       30.25F WCI  30
ELKO, NV       MOCLDY    35  18  49 E3        30.22S
POCATELLO, ID  NOT AVBL
BURLEY, ID     CLEAR     40  24  53 SW7       30.13F
FORT BRIDGER,    N/A     45   5  19 SW12      30.25F
EVANSTON, WY   CLOUDY    44   7  21 SW9       30.24F
ROCK SPRINGS,  CLOUDY    45   2  17 SW10      30.19F
KEMMERER, WY   CLOUDY    39   9  28 N5        30.24S

$$




USA.gov is the U.S. government's official web portal to all federal, state and local government web resources and services.